This is the latest recevied weather packets stored in our database for station/object IZ1UQG-N2. If no packets are shown the sender has not sent any weather packets the latest 10 day(s).
| Time | Temp. | Humidity | Pressure | Rain* | Wind** | Luminosity | Snow |
|---|---|---|---|---|---|---|---|
| 1787915883 | 24.44° C | 86% | 1013.4 hPa | 1.78 mm | - | 821 W/m² | - |
| 1787915822 | 24.44° C | 87% | 1013.4 hPa | 1.78 mm | - | 693 W/m² | - |
| 1787915764 | 24.44° C | 87% | 1013.4 hPa | 1.78 mm | - | 508 W/m² | - |
| 1787915704 | 24.44° C | 86% | 1013.4 hPa | 1.78 mm | - | 519 W/m² | - |
| 1787915643 | 24.44° C | 87% | 1013.5 hPa | 1.78 mm | - | 614 W/m² | - |
| 1787915583 | 23.89° C | 85% | 1013.4 hPa | 1.78 mm | - | 647 W/m² | - |
| 1787915523 | 24.44° C | 85% | 1013.5 hPa | 1.78 mm | - | 464 W/m² | - |
| 1787915463 | 24.44° C | 86% | 1013.4 hPa | 1.78 mm | - | 928 W/m² | - |
| 1787915402 | 24.44° C | 86% | 1013.5 hPa | 1.78 mm | - | 297 W/m² | - |
| 1787915343 | 24.44° C | 86% | 1013.4 hPa | 1.78 mm | - | 204 W/m² | - |
| 1787915282 | 24.44° C | 86% | 1013.5 hPa | 1.78 mm | - | 229 W/m² | - |
| 1787915224 | 24.44° C | 86% | 1013.6 hPa | 1.78 mm | - | 283 W/m² | - |
| 1787915163 | 24.44° C | 87% | 1013.8 hPa | 1.78 mm | - | 260 W/m² | - |
| 1787915103 | 24.44° C | 87% | 1013.7 hPa | 1.78 mm | - | 244 W/m² | - |
| 1787915044 | 23.89° C | 87% | 1013.8 hPa | 1.78 mm | - | 258 W/m² | - |
| 1787914982 | 23.89° C | 87% | 1013.7 hPa | 1.78 mm | - | 255 W/m² | - |
| 1787914924 | 23.89° C | 87% | 1013.8 hPa | 1.78 mm | - | 243 W/m² | - |
| 1787914863 | 23.89° C | 88% | 1013.7 hPa | 1.78 mm | - | 234 W/m² | - |
| 1787914803 | 23.89° C | 88% | 1013.7 hPa | 1.78 mm | - | 218 W/m² | - |
| 1787914743 | 23.89° C | 88% | 1013.9 hPa | 1.78 mm | - | 211 W/m² | - |
| 1787914683 | 23.89° C | 88% | 1013.8 hPa | 1.78 mm | - | 207 W/m² | - |
| 1787914623 | 23.89° C | 88% | 1013.9 hPa | 1.78 mm | - | 185 W/m² | - |
| 1787914563 | 23.33° C | 88% | 1013.8 hPa | 1.78 mm | - | 172 W/m² | - |
| 1787914502 | 23.33° C | 88% | 1013.8 hPa | 1.78 mm | - | 156 W/m² | - |
| 1787914444 | 23.33° C | 88% | 1013.9 hPa | 1.78 mm | - | 146 W/m² | - |
* Rain latest hour (hover to see other rain measurements)
** Current wind speed in m/s (hover to see current wind gust speed)